Location: Bruderhein
(53.8035°N, 112.9265°W)
Time: 08:17:32
(UTC+00:00)

TIGRISAT - Pass Details

Date: 04 April 2023
Orbit: 599 x 682 km, 97.7° (Epoch: 03 June)

Event Time Altitude Azimuth Distance (km) Brightness Sun altitude
Rises 10:50:41 0° 125° (SE) 2,967 ? -17.8°
Reaches altitude 10° 10:53:13 10° 111° (ESE) 2,075 ? -17.5°
Maximum altitude 10:56:48 24° 59° (ENE) 1,396 ? -17.1°
Drops below altitude 10° 11:00:27 10° 7° (N) 2,121 ? -16.6°
Sets 11:03:04 0° 353° (N) 3,050 ? -16.3°
